"TOA5","AWS1","CR1000","7964","CR1000.Std.14","CPU:AWS1_114.CR1","64363","TBL110"
"TIMESTAMP","RECORD","Wind_spd_WVc(1)","Wind_spd_WVc(2)","Air_Temp_Avg","Humidity_Avg","SW_upper_Wm2_Avg","Rain_Tot","Press_Avg","Issui_Tot","Depth_cm","SR50A_Raw","Quality","Ground_Temp_Avg(1)","Ground_Temp_Avg(2)","SW_lower_Wm2_Avg","Albedo_Avg","SWC_per(1)","SWC_per(2)","Period(1)","Period(2)"
"TS","RN","","","","","","","","","","","","","","","","","","",""
"","","WVc","WVc","Avg","Avg","Avg","Tot","Avg","Tot","Smp","Smp","Smp","Avg","Avg","Avg","Avg","Smp","Smp","Smp","Smp"
"2017-08-27 00:00:00",303037,0.189,181.3,12.6,94.9,0,0,868.6577,0,-4.622,3.154,195,21.08,21.21,0.3600064,0,50.11,57.62,33.33,35.13
"2017-08-27 00:10:00",303038,0.113,187.4,12.69,95.1,0,0,868.6746,0,-41.17,3.511,322,21.06,21.18,0.4547449,0,50.11,57.62,33.33,35.13
"2017-08-27 00:20:00",303039,0.348,192.6,12.37,95,0,0,868.6998,0,-1.822,3.129,281,21.08,21.13,0.1174758,0,50.11,57.56,33.33,35.12
"2017-08-27 00:30:00",303040,0.376,185.2,12.26,96.6,0,0,868.7462,0,-1.31,3.124,282,21.08,21.09,0.4509554,0,50.11,57.56,33.33,35.12
"2017-08-27 00:40:00",303041,0.148,186.8,12.28,98.2,0,0,868.6787,0,-3.17,3.141,221,21.03,21.06,0.5911684,0,50.11,57.56,33.33,35.12
"2017-08-27 00:50:00",303042,0.329,182.9,12.05,97.7,0,0,868.6113,0,-1.092,3.124,282,21,21.06,0.1288444,0,50.11,57.56,33.33,35.12
"2017-08-27 01:00:00",303043,0.235,267,12.36,99.6,0,0,868.5903,0,2.678,3.081,508,20.94,21.06,0.8488572,0,50.11,57.51,33.33,35.1
"2017-08-27 01:10:00",303044,0.317,171.7,12.44,95,0,0,868.6914,0,1.005,3.103,298,20.88,21.06,0.4926403,0,50.11,57.51,33.33,35.1
"2017-08-27 01:20:00",303045,0.242,190.7,11.85,98.1,0,0,868.9104,0,1.39,3.099,281,20.93,21.06,0.272847,0,50.11,57.51,33.33,35.1
"2017-08-27 01:30:00",303046,0.33,184.9,11.65,99.2,0,0,868.9125,0,1.426,3.101,421,20.88,21.07,0.1061071,0,50.06,57.51,33.31,35.1
"2017-08-27 01:40:00",303047,0.436,187.1,11.55,100,0,0,868.8768,0,0.249,3.113,268,20.82,21.1,0.4320077,0,50.11,57.51,33.33,35.1
"2017-08-27 01:50:00",303048,0.347,188.4,11.46,100,0,0,868.8704,0,0.687,3.108,274,20.84,21.1,0.4850613,0,50.11,57.45,33.33,35.09
"2017-08-27 02:00:00",303049,0.102,190.3,11.57,100,0,0,868.923,0,1.556,3.099,306,20.74,21.13,0.5835909,0,50.06,57.51,33.31,35.1
"2017-08-27 02:10:00",303050,0.161,178.8,11.96,99.2,0,0,869.0705,0,0.782,3.108,258,20.72,21.14,1.091403,0,50.11,57.51,33.33,35.1
"2017-08-27 02:20:00",303051,0.374,181.1,11.21,99,0,0,868.923,0,1.748,3.099,249,20.77,21.15,0.1402152,0,50.06,57.45,33.31,35.09
"2017-08-27 02:30:00",303052,0.41,175.1,11.09,99.8,0,0,868.8978,0,2.009,3.099,225,20.74,21.15,0.4964424,0,50.06,57.45,33.31,35.09
"2017-08-27 02:40:00",303053,0.168,209.6,11.25,99.3,0,0,868.923,0,1.719,3.099,250,20.68,21.16,0.9133302,0,50.06,57.45,33.31,35.09
"2017-08-27 02:50:00",303054,0.384,182.5,11.1,97.9,0,0,868.923,0,1.753,3.101,225,20.7,21.14,0.5229844,0,50.06,57.45,33.31,35.09
"2017-08-27 03:00:00",303055,0.394,187.9,11.06,98.6,0,0,868.7841,0,0.931,3.109,225,20.63,21.1,0.5950103,0,50.06,57.45,33.31,35.09
"2017-08-27 03:10:00",303056,0.532,193.2,10.91,99,0,0,868.6808,0,1.77,3.101,221,20.6,21.09,0.4585928,0,50.06,57.39,33.31,35.07
"2017-08-27 03:20:00",303057,0.535,186.1,10.79,98.7,0,0,868.6956,0,1.686,3.103,205,20.63,21.07,0.4547974,0,50.06,57.39,33.31,35.07
"2017-08-27 03:30:00",303058,0.261,199.1,10.84,94.7,0,0,868.6703,0,0.641,3.112,268,20.54,21.08,0.8376125,0,50.01,57.39,33.3,35.07
"2017-08-27 03:40:00",303059,0.2,197.8,10.9,90.2,0,0,868.6451,0,1.996,3.098,209,20.52,21.06,0.989237,0,50.01,57.39,33.3,35.07
"2017-08-27 03:50:00",303060,0.237,193.1,10.97,88.3,0,0,868.6703,0,0.723,3.113,228,20.58,21.08,1.121935,0,50.06,57.39,33.31,35.07
"2017-08-27 04:00:00",303061,0.339,206.2,10.8,88.1,0,0,868.7651,0,1.68,3.1,224,20.46,21.12,1.284971,0,50.01,57.39,33.3,35.07
"2017-08-27 04:10:00",303062,0.076,167.5,11.34,87.4,0,0,868.921,0,0.823,3.11,220,20.48,21.14,1.614814,0,50.01,57.33,33.3,35.06
"2017-08-27 04:20:00",303063,0.307,195.3,10.91,89,0,0,868.923,0,1.307,3.105,219,20.54,21.12,1.125859,0,50.01,57.33,33.3,35.06
"2017-08-27 04:30:00",303064,0.425,190.8,10.69,90.9,0,0,868.9904,0,0.168,3.119,243,20.47,21.07,0.8908414,0,50.06,57.33,33.31,35.06
"2017-08-27 04:40:00",303065,0.376,189.6,10.6,94.4,0,0,869.1779,0,1.042,3.109,242,20.41,21.05,0.8832635,0,50.01,57.33,33.3,35.06
"2017-08-27 04:50:00",303066,0.398,196.5,10.45,93.7,0,0,869.3106,0,1.211,3.109,230,20.44,21.02,0.6937228,0,50.01,57.33,33.3,35.06
"2017-08-27 05:00:00",303067,0.55,192.7,10.26,92.9,0,0,869.4222,0,0.978,3.112,219,20.37,21.03,0.5610438,0,50.06,57.33,33.31,35.06
"2017-08-27 05:10:00",303068,0.479,192.1,10.25,92.5,0,0,869.4244,0,1.404,3.109,205,20.32,21.06,0.9098007,0,50.01,57.33,33.3,35.06
"2017-08-27 05:20:00",303069,0.569,196,10.12,94.2,0,0,869.4286,0,1.181,3.11,217,20.37,21.07,0.8946373,0,50.01,57.33,33.3,35.06
"2017-08-27 05:30:00",303070,0.239,201.5,10.46,92.4,0.6290603,0,869.4286,0,1.279,3.11,203,20.29,21.07,1.288884,0.922,50.01,57.27,33.3,35.05
"2017-08-27 05:40:00",303071,0.304,195.9,10.47,90.2,4.710089,0,869.5107,0,1.162,3.109,225,20.24,21.07,2.088751,0.454,50.01,57.27,33.3,35.05
"2017-08-27 05:50:00",303072,0.497,188.9,10.27,90.6,8.582686,0,869.5318,0,1.077,3.112,209,20.26,21.07,1.914361,0.227,50.01,57.27,33.3,35.05
"2017-08-27 06:00:00",303073,0.429,190.2,10.21,88.5,12.91131,0,869.6244,0,0.98,3.112,202,20.14,21.04,2.543621,0.197,50.01,57.27,33.3,35.05
"2017-08-27 06:10:00",303074,0.448,183.9,10.31,88.8,20.93972,0,869.6687,0,1.367,3.107,226,20.16,20.96,4.321528,0.205,50.01,57.22,33.3,35.03
"2017-08-27 06:20:00",303075,0.406,183.5,10.73,86.6,76.43068,0,869.6813,0,1.382,3.104,234,20.2,20.94,11.25876,0.163,50.01,57.22,33.3,35.03
"2017-08-27 06:30:00",303076,0.26,180.6,11.28,84.7,43.17317,0,869.734,0,1.388,3.103,243,20.15,20.94,11.9525,0.307,50.01,57.22,33.3,35.03
"2017-08-27 06:40:00",303077,0.309,172.1,11.6,84.1,61.2744,0,869.7214,0,-0.195,3.114,203,20.03,20.93,13.81002,0.271,50.01,57.22,33.3,35.03
"2017-08-27 06:50:00",303078,0.007,170.5,12.23,84.2,75.42825,0,869.9257,0,1.049,3.099,214,20.03,20.93,15.87602,0.23,50.01,57.22,33.3,35.03
"2017-08-27 07:00:00",303079,0.022,165.2,12.75,84.7,123.2598,0,869.934,0,0.275,3.104,202,20.03,20.9,16.69478,0.147,50.01,57.16,33.3,35.02
"2017-08-27 07:10:00",303080,0,0,13.37,82.2,60.83399,0,869.934,0,-0.908,3.111,212,20.01,20.88,17.35705,0.296,50.01,57.16,33.3,35.02
"2017-08-27 07:20:00",303081,0.036,153.7,13.83,80.3,49.17207,0,869.9888,0,-0.572,3.106,252,19.98,20.85,17.18842,0.35,50.01,57.22,33.3,35.03
"2017-08-27 07:30:00",303082,0.157,359.5,14.59,70.58,79.16988,0,870.25,0,1.518,3.082,226,19.87,20.82,18.55872,0.269,49.95,57.22,33.28,35.03
"2017-08-27 07:40:00",303083,0.349,28.29,14.6,71.25,70.16518,0,870.4374,0,0.773,3.09,212,19.82,20.81,18.85346,0.273,49.95,57.16,33.28,35.02
"2017-08-27 07:50:00",303084,0.266,121,14.98,77.63,81.68378,0,870.4395,0,1.032,3.084,210,19.84,20.8,19.26619,0.237,49.95,57.16,33.28,35.02
"2017-08-27 08:00:00",303085,0.366,131.4,15.53,74.54,252.1874,0,870.4164,0,1.482,3.078,205,19.84,20.8,26.31844,0.13,50.01,57.16,33.3,35.02
"2017-08-27 08:10:00",303086,0.02,142.3,16.35,70.6,435.0003,0,870.4374,0,1.023,3.076,203,19.83,20.8,32.71515,0.086,49.95,57.16,33.28,35.02
"2017-08-27 08:20:00",303087,0.272,318.8,17.22,64.66,560.5021,0,870.4283,0,1.364,3.072,202,19.8,20.78,38.91483,0.069,49.95,57.16,33.28,35.02
"2017-08-27 08:30:00",303088,0.302,319.2,17.36,64.16,554.1783,0,870.4063,0,2.321,3.057,217,19.77,20.77,46.44844,0.085,49.95,57.16,33.28,35.02
"2017-08-27 08:40:00",303089,0.517,349.2,17.56,67.71,118.3193,0,870.3687,0,2.606,3.058,228,19.77,20.78,46.62562,0.43,50.01,57.16,33.3,35.02
"2017-08-27 08:50:00",303090,0.55,344.4,17.23,71.67,127.6584,0,870.3542,0,2.237,3.062,216,19.68,20.73,45.30103,0.437,50.01,57.16,33.3,35.02
"2017-08-27 09:00:00",303091,0.627,327.8,17.6,71.59,534.6426,0,870.3486,0,2.755,3.053,223,19.61,20.66,48.62238,0.149,50.01,57.1,33.3,35.01
"2017-08-27 09:10:00",303092,0.381,338.1,18.35,69.58,738.7729,0,870.3598,0,2.431,3.053,222,19.62,20.63,59.73862,0.081,50.01,57.1,33.3,35.01
"2017-08-27 09:20:00",303093,0.36,16.38,18.76,68.3,519.7192,0,870.3468,0,2.82,3.049,274,19.58,20.59,66.29571,0.146,49.95,57.1,33.28,35.01
"2017-08-27 09:30:00",303094,0.629,348.6,18.87,69.54,693.325,0,870.3467,0,2.439,3.052,227,19.54,20.58,63.10604,0.1,50.01,57.1,33.3,35.01
"2017-08-27 09:40:00",303095,0.504,348.1,19.18,67.82,843.279,0,870.3383,0,2.46,3.05,236,19.56,20.58,67.91304,0.081,50.01,57.1,33.3,35.01
"2017-08-27 09:50:00",303096,0.413,12.97,19.49,67.86,500.2442,0,870.3068,0,-0.013,3.073,215,19.53,20.51,72.50759,0.173,50.01,57.1,33.3,35.01
"2017-08-27 10:00:00",303097,0.452,11.7,19.53,69.37,519.1091,0,870.1741,0,1.766,3.054,308,19.49,20.53,76.12885,0.154,49.95,57.1,33.28,35.01
"2017-08-27 10:10:00",303098,0.455,3.544,19.83,69.26,916.6707,0,870.1172,0,0.739,3.063,283,19.49,20.51,90.32333,0.098,50.01,57.04,33.3,34.99
"2017-08-27 10:20:00",303099,0.552,21.05,19.99,70.16,964.8589,0,870.0941,0,2.303,3.047,304,19.49,20.49,103.9648,0.108,49.95,57.04,33.28,34.99
"2017-08-27 10:30:00",303100,0.543,17.96,20.18,71.22,983.7689,0,870.0457,0,1.872,3.048,216,19.48,20.48,112.2345,0.114,49.95,57.04,33.28,34.99
"2017-08-27 10:40:00",303101,0.39,357.5,20.53,70.54,1030.005,0,869.9362,0,2.45,3.044,262,19.45,20.46,124.9631,0.121,49.95,57.04,33.28,34.99
"2017-08-27 10:50:00",303102,0.5,330.9,20.66,71.16,1036.48,0,869.8415,0,5.341,3.015,299,19.47,20.48,131.9183,0.127,49.95,57.04,33.28,34.99
"2017-08-27 11:00:00",303103,0.738,17.46,20.87,70.66,1026.854,0,869.8289,0,5.306,3.014,257,19.59,20.46,138.4758,0.135,49.9,57.04,33.27,34.99
"2017-08-27 11:10:00",303104,0.429,1.543,20.78,71.36,801.9766,0,869.7089,0,4.834,3.021,317,19.56,20.4,110.1321,0.137,49.9,56.98,33.27,34.98
"2017-08-27 11:20:00",303105,0.445,312,20.59,73.11,893.8314,0,869.5973,0,3.531,3.032,225,19.6,20.38,127.9899,0.14,49.9,56.98,33.27,34.98
"2017-08-27 11:30:00",303106,0.61,19.79,21.01,72.09,948.9231,0,869.5889,0,-34.07,3.392,201,19.65,20.36,137.7484,0.145,49.9,56.98,33.27,34.98
"2017-08-27 11:40:00",303107,0.483,0.381,20.84,72.04,845.1164,0,869.5889,0,3.114,3.034,237,19.74,20.36,122.3454,0.143,49.84,56.98,33.26,34.98
"2017-08-27 11:50:00",303108,0.497,316.3,21.02,72.11,1009.661,0,869.673,0,3.679,3.029,237,19.76,20.37,154.5001,0.153,49.84,56.93,33.26,34.97
"2017-08-27 12:00:00",303109,0.418,338.4,20.52,73.67,599.1251,0,869.7657,0,1.32,3.054,210,19.86,20.37,83.95524,0.127,49.84,56.93,33.26,34.97
"2017-08-27 12:10:00",303110,0.418,321.9,20.92,71.83,816.0933,0,869.5952,0,2.538,3.04,236,19.91,20.34,125.304,0.145,49.84,56.93,33.26,34.97
"2017-08-27 12:20:00",303111,0.534,350.8,21.39,69.9,782.6265,0,869.5909,0,3.92,3.024,372,20,20.31,119.042,0.142,49.84,56.93,33.26,34.97
"2017-08-27 12:30:00",303112,0.229,245.8,21.52,70.81,492.6546,0,869.5867,0,4.151,3.022,333,20.09,20.24,71.73055,0.133,49.79,56.93,33.24,34.97
"2017-08-27 12:40:00",303113,0.292,163,21.82,72.16,923.876,0,869.5889,0,4.981,3.012,218,20.09,20.23,151.5414,0.158,49.79,56.87,33.24,34.95
"2017-08-27 12:50:00",303114,0.31,300.2,22.11,68.51,1000.043,0,869.5889,0,6.011,2.999,232,20.15,20.27,158.9437,0.158,49.79,56.87,33.24,34.95
"2017-08-27 13:00:00",303115,0.43,113.6,22.6,67.31,961.7629,0,869.4583,0,4.82,3.01,213,20.22,20.27,149.492,0.154,49.79,56.87,33.24,34.95
"2017-08-27 13:10:00",303116,0.292,268.5,22.53,66.92,970.7759,0,869.3298,0,4.728,3.01,282,20.3,20.27,151.2346,0.156,49.73,56.87,33.23,34.95
"2017-08-27 13:20:00",303117,0.319,176.5,22.59,69.18,703.5565,0,869.1403,0,5.201,3.009,254,20.34,20.25,102.9723,0.13,49.68,56.81,33.22,34.94
"2017-08-27 13:30:00",303118,0.233,190.6,22.12,67.79,709.6188,0,869.0834,0,3.098,3.027,349,20.36,20.19,106.2226,0.14,49.73,56.81,33.23,34.94
"2017-08-27 13:40:00",303119,0.253,224.2,22.5,67.72,662.2947,0,869.0856,0,2.278,3.036,217,20.48,20.19,93.1266,0.13,49.68,56.81,33.22,34.94
"2017-08-27 13:50:00",303120,0.207,277.3,22.28,66.9,724.3367,0,869.0834,0,4.45,3.016,228,20.54,20.19,93.28191,0.119,49.62,56.81,33.2,34.94
"2017-08-27 14:00:00",303121,0.175,232.2,22.33,64.77,600.9049,0,869.0834,0,0.672,3.051,260,20.6,20.19,64.54045,0.102,49.62,56.87,33.2,34.95
"2017-08-27 14:10:00",303122,0.29,175.2,22.07,66.51,490.2736,0,869.0834,0,3.942,3.02,377,20.67,20.19,54.04321,0.108,49.62,56.87,33.2,34.95
"2017-08-27 14:20:00",303123,0.25,282.6,22.07,64.57,463.4664,0,869.0834,0,4.023,3.021,324,20.71,20.21,44.14829,0.097,49.62,56.81,33.2,34.94
"2017-08-27 14:30:00",303124,0.447,326.3,21.57,66.48,548.3827,0,869.0834,0,1.718,3.047,233,20.78,20.23,45.5954,0.088,49.62,56.81,33.2,34.94
"2017-08-27 14:40:00",303125,0.448,301,21.28,68.13,299.1028,0,869.0834,0,0.091,3.062,193,20.83,20.23,37.68932,0.129,49.57,56.75,33.19,34.93
"2017-08-27 14:50:00",303126,0.499,339.6,21.53,65.03,239.1825,0,869.0771,0,2.43,3.037,238,20.91,20.23,40.92449,0.17,49.57,56.81,33.19,34.94
"2017-08-27 15:00:00",303127,0.598,31.63,21.92,62.9,191.6197,0,869.0687,0,3.259,3.029,229,20.99,20.22,25.90804,0.146,49.57,56.75,33.19,34.93
"2017-08-27 15:10:00",303128,0.278,262.4,21.58,66.04,138.8961,0,869.0603,0,2.194,3.041,221,21.03,20.2,20.01768,0.146,49.51,56.75,33.18,34.93
"2017-08-27 15:20:00",303129,0.276,18.04,21.42,66.89,169.4809,0,868.9403,0,1.786,3.044,245,21.07,20.27,25.08724,0.148,49.51,56.75,33.18,34.93
"2017-08-27 15:30:00",303130,0.335,308.6,21.46,65.18,169.9689,0,868.8308,0,2.054,3.043,281,21.14,20.3,24.26526,0.143,49.51,56.75,33.18,34.93
"2017-08-27 15:40:00",303131,0.026,253.9,21.08,68.42,190.618,0,868.8455,0,3.343,3.031,220,21.2,20.26,26.47032,0.139,49.51,56.75,33.18,34.93
"2017-08-27 15:50:00",303132,0.105,89,21.36,66.38,188.236,0,869.0161,0,3.709,3.027,220,21.3,20.31,25.49383,0.135,49.46,56.75,33.16,34.93
"2017-08-27 16:00:00",303133,0.182,276.6,21.02,69.07,157.3528,0,869.1003,0,4.683,3.019,354,21.31,20.31,20.2311,0.128,49.46,56.7,33.16,34.91
"2017-08-27 16:10:00",303134,0.127,273,20.88,70.48,166.6535,0,869.2919,0,3.874,3.029,272,21.3,20.33,22.56108,0.135,49.41,56.7,33.15,34.91
"2017-08-27 16:20:00",303135,0.114,40.71,20.78,71.72,147.5619,0,869.1108,0,0.175,3.064,198,21.44,20.36,19.42803,0.131,49.41,56.7,33.15,34.91
"2017-08-27 16:30:00",303136,0.177,9.27,20.57,71.59,141.7087,0,869.0834,0,-0.063,3.067,197,21.44,20.39,18.8329,0.133,49.41,56.7,33.15,34.91
"2017-08-27 16:40:00",303137,0.339,62.39,20.55,70.99,119.3842,0,869.1003,0,1.948,3.048,253,21.44,20.41,15.99169,0.134,49.41,56.7,33.15,34.91
"2017-08-27 16:50:00",303138,0.27,65.15,20.41,71.16,102.7862,0,869.2077,0,1.178,3.057,215,21.5,20.43,14.0789,0.137,49.35,56.64,33.14,34.9
"2017-08-27 17:00:00",303139,0.226,33.12,20.03,72.92,96.37753,0,869.3361,0,0.167,3.069,199,21.56,20.44,13.39696,0.139,49.35,56.64,33.14,34.9
"2017-08-27 17:10:00",303140,0.031,320,19.74,75.61,86.13208,0,869.393,0,-0.602,3.078,191,21.58,20.44,11.37033,0.132,49.35,56.64,33.14,34.9
"2017-08-27 17:20:00",303141,0.107,67.55,19.44,78,69.5727,0,869.572,0,0.275,3.07,198,21.57,20.44,8.831774,0.127,49.35,56.64,33.14,34.9
"2017-08-27 17:30:00",303142,0.195,39.28,19.36,76.48,50.95471,0,869.5889,0,0.16,3.072,198,21.58,20.44,6.505458,0.128,49.35,56.64,33.14,34.9
"2017-08-27 17:40:00",303143,0.112,58.74,19.09,78.41,35.46111,0,869.791,0,0.864,3.067,197,21.58,20.45,4.232228,0.119,49.35,56.64,33.14,34.9
"2017-08-27 17:50:00",303144,0.03,69.39,19.03,78.04,21.55409,0,869.8415,0,2.058,3.055,219,21.58,20.45,2.341555,0.107,49.35,56.64,33.14,34.9
"2017-08-27 18:00:00",303145,0.116,34.62,18.85,78.61,12.17817,0,869.8415,0,2.194,3.055,221,21.59,20.47,0.9889256,0.08,49.35,56.58,33.14,34.88
"2017-08-27 18:10:00",303146,0.11,54.21,18.69,79.33,6.574575,0,869.9291,0,2.192,3.055,225,21.59,20.53,0.5759413,0.088,49.35,56.58,33.14,34.88
"2017-08-27 18:20:00",303147,0.055,70.18,18.59,80.2,2.389355,0,870.0718,0,2.31,3.055,232,21.6,20.6,0.05683693,0.014,49.35,56.58,33.14,34.88
"2017-08-27 18:30:00",303148,0.067,43.84,18.36,81,0.02357886,0,870.1601,0,2.761,3.052,231,21.59,20.62,0,0,49.35,56.58,33.14,34.88
"2017-08-27 18:40:00",303149,0.104,48.81,18.12,81.2,0,0,870.2585,0,2.826,3.052,236,21.6,20.61,0,0,49.3,56.58,33.12,34.88
"2017-08-27 18:50:00",303150,0.214,53.72,18.09,81.6,0,0,870.3467,0,2.975,3.051,248,21.61,20.6,0,0,49.3,56.58,33.12,34.88
"2017-08-27 19:00:00",303151,0.187,68.9,17.98,81.1,0,0,870.4078,0,2.801,3.054,234,21.65,20.57,0,0,49.3,56.52,33.12,34.87
"2017-08-27 19:10:00",303152,0.114,95.6,17.8,82.1,0,0,870.5886,0,2.798,3.054,239,21.7,20.58,0,0,49.3,56.52,33.12,34.87
"2017-08-27 19:20:00",303153,0.005,152.8,17.55,85.1,0,0,870.5895,0,2.985,3.054,244,21.69,20.58,0,0,49.24,56.52,33.11,34.87
"2017-08-27 19:30:00",303154,0.176,138.6,17.3,86.4,0,0,870.6064,0,3.125,3.054,260,21.67,20.63,0,0,49.24,56.52,33.11,34.87
"2017-08-27 19:40:00",303155,0.344,147.2,17.34,85.5,0,0,870.8012,0,2.08,3.063,226,21.55,20.66,0.2046352,0,49.3,56.58,33.12,34.88
"2017-08-27 19:50:00",303156,0.447,125.5,17.23,85.5,0,0,870.8466,0,2.403,3.061,238,21.56,20.67,0.0189477,0,49.24,56.52,33.11,34.87
"2017-08-27 20:00:00",303157,0.712,98.5,17.28,84.3,0,0,870.8652,0,3.238,3.052,239,21.59,20.67,0.2766365,0,49.24,56.52,33.11,34.87
"2017-08-27 20:10:00",303158,0.27,58.27,17.49,82.1,0,0,870.8583,0,2.984,3.054,247,21.61,20.67,0.3903227,0,49.19,56.46,33.09,34.86
"2017-08-27 20:20:00",303159,0.226,20.58,17.45,82.5,0,0,870.8845,0,2.516,3.059,232,21.55,20.72,0.2955842,0,49.24,56.52,33.11,34.87
"2017-08-27 20:30:00",303160,0.277,48.72,17.43,82.8,0,0,870.8849,0,2.295,3.06,250,21.5,20.72,0.3827437,0,49.24,56.46,33.11,34.86
"2017-08-27 20:40:00",303161,0.385,54.14,17.5,82.6,0,0,870.8936,0,3.04,3.053,252,21.45,20.7,0.371375,0,49.19,56.46,33.09,34.86
"2017-08-27 20:50:00",303162,0.253,107,17.54,82.4,0,0,871.1281,0,3.12,3.052,260,21.46,20.68,0.2955842,0,49.24,56.46,33.11,34.86
"2017-08-27 21:00:00",303163,0.377,28.02,17.5,82.5,0,0,871.1084,0,3.134,3.053,249,21.5,20.73,0.2008457,0,49.19,56.46,33.09,34.86
"2017-08-27 21:10:00",303164,0.164,65.89,17.42,83.3,0,0,870.9197,0,3.294,3.051,251,21.47,20.76,0.01136862,0,49.19,56.46,33.09,34.86
"2017-08-27 21:20:00",303165,0.212,70.44,17.39,83.5,0,0,870.8578,0,3.135,3.053,240,21.38,20.78,0,0,49.24,56.46,33.11,34.86
"2017-08-27 21:30:00",303166,0.308,42.58,17.3,84.1,0,0,870.8811,0,3.434,3.051,254,21.37,20.82,0.003789541,0,49.19,56.46,33.09,34.86
"2017-08-27 21:40:00",303167,0.306,112.9,17.17,84.7,0,0,870.8672,0,3.481,3.051,263,21.38,20.82,0,0,49.19,56.46,33.09,34.86
"2017-08-27 21:50:00",303168,0.308,131.7,17.17,84.9,0,0,870.8619,0,3.711,3.049,274,21.37,20.83,0.01136862,0,49.19,56.41,33.09,34.84
"2017-08-27 22:00:00",303169,0.114,137.7,17.18,84.7,0,0,870.7435,0,3.434,3.051,281,21.36,20.84,0.0189477,0,49.24,56.41,33.11,34.84
"2017-08-27 22:10:00",303170,0.112,117.9,17.11,85.3,0,0,870.7034,0,3.791,3.048,316,21.29,20.84,0.0189477,0,49.19,56.41,33.09,34.84
"2017-08-27 22:20:00",303171,0.182,95.1,16.98,85.5,0,0,870.6058,0,3.37,3.053,278,21.29,20.84,0,0,49.19,56.41,33.09,34.84
"2017-08-27 22:30:00",303172,0.007,48.88,16.92,86,0,0,870.6137,0,3.268,3.054,290,21.34,20.84,0,0,49.19,56.41,33.09,34.84
"2017-08-27 22:40:00",303173,0.119,37.26,16.96,85.3,0,0,870.7022,0,3.314,3.054,262,21.29,20.84,0.2425306,0,49.19,56.41,33.09,34.84
"2017-08-27 22:50:00",303174,0.007,295,16.81,86.3,0,0,870.8697,0,2.847,3.059,233,21.28,20.84,0.0644222,0,49.13,56.41,33.08,34.84
"2017-08-27 23:00:00",303175,0,0,16.62,87.9,0,0,870.8701,0,2.829,3.061,245,21.22,20.84,0,0,49.24,56.41,33.11,34.84
"2017-08-27 23:10:00",303176,0.001,186.6,16.34,90.1,0,0,870.874,0,0.865,3.081,235,21.25,20.84,0,0,49.13,56.35,33.08,34.83
"2017-08-27 23:20:00",303177,0.048,200,16.37,90.3,0,0,870.8842,0,0.199,3.087,213,21.28,20.83,0.1212653,0,49.13,56.35,33.08,34.83
"2017-08-27 23:30:00",303178,0.033,145.4,16.24,91.2,0,0,870.8837,0,-0.529,3.095,202,21.23,20.83,0.03031633,0,49.13,56.35,33.08,34.83
"2017-08-27 23:40:00",303179,0.24,147.5,16.08,92.9,0,0,870.7244,0,-1.256,3.103,194,21.18,20.82,0,0,49.19,56.35,33.09,34.83
"2017-08-27 23:50:00",303180,0.019,135.4,16.1,93.2,0,0,870.6406,0,-1.447,3.103,192,21.13,20.81,0.1591607,0,49.19,56.35,33.09,34.83
